{"data":{"norad_id":67971,"epoch":"2026-05-24T23:59:07.646784Z","epoch_age_seconds":78195,"freshness":"FRESH","line1":"1 67971U 26038L   26144.99939406  .00014768  00000+0  45873-3 0  9990","line2":"2 67971  97.2836 155.0272 0001763 106.0382 254.1055 15.33453084 14931","mean_motion":15.33453084,"eccentricity":0.0001763,"inclination_deg":97.2836,"raan_deg":155.0272,"arg_perigee_deg":106.0382,"mean_anomaly_deg":254.1055,"bstar":0.00045873,"rev_number":1493,"period_min":93.905709605655,"perigee_km":464.31258571302,"apogee_km":466.72565886173,"semimajor_km":6843.6561222874,"source":"CELESTRAK","updated_at":"2026-05-25T13:38:21.774859Z"}}